DELTA 1 DEB, 42634

Orbit data source: Space-Track

DELTA 1 DEB, 42634 is space debris in SSO originally from a launch on Thu, 12 Jun 1975 UTC launched from the Air Force Western Test Range (AFWTR). Debris objects in space refer to the collection of defunct objects orbiting the Earth. Examples of debris include non-operational satellites, rocket bodies, and fragments generated from explosions, collisions, or faulty payload assembly.

Loading next visibility...
Identifier
42634, 1975-052LT
Orbit
SSO
Country
Flag of USUS
Related business
Manufacturer
Unknown
Mission
Spacecraft
Bus & Motor
Unknown
Mass
Unknown
Launch date (UTC)
1975-06-12 (51 years ago)
Launch vehicle
Unknown
Launch site
Air Force Western Test Range (AFWTR)
Object type
Payload
Rocket body
Debris
Shape & HBR
Unknown shape, 0.1 m
Radar Cross Section
Small (<0.1 m²)

Expand to show TLE details & history
Last TLE update: 1 week ago

TLE from 1 week ago
0 DELTA 1 DEB
1 42634U 75052LT  26118.33479243  .00000112  00000-0  30443-3 0  9992
2 42634  99.7596 345.9268 0062493  41.2242 319.3579 13.34396146605538
Epoch: 2026-04-28T08:02Z
TLE epoch observation values (Epoch: 2026-04-28T08:02:06.065Z)
Latitude
-0.00001°
Longitude
9.08994°
Altitude
1,097.504 km
Speed
7.321 km/s
True Right ascension
23h 03m 42s
True Declination
0° 00' 00"
Sunlit
Object was in daylight at epoch
Visualization orbit readout
Latitude
Unknown
Longitude
Unknown
Altitude
Unknown
Speed
Unknown
Apparent Right ascension
Unknown
Apparent Declination
Unknown
Sunlit
N/A
Visualization observer readout
Local Sidereal Time
11:20:59
Azimuth
Unknown
Elevation
Unknown
Doppler factor
Unknown
Orbital elements
Apogee altitude
1,174.458 km
Perigee altitude
1,080.647 km
Semi-major axis
7,505.689 km
Eccentricity
0.00625
Inclination
99.7596°
RAAN
345.9268°
Arg. of periapsis
41.2242°
True anomaly
318.88869°
Mean anomaly
319.3579°
Eccentric anomaly
319.12358°
Mean motion
3.33778 °/min
Orbital period
107.86 mins
BSTAR
0.00030443
Loading maneuver chart data...
Computing Atmospheric mass density...
Loading historical data...
Loading historical data...
Loading historical data...
Loading historical data...
Loading historical data...
Loading historical data...
Loading historical data...

Documentation

Showing up to 5 results
|